Mar del Plata, Argentina

8:20 AM America en Enero 24, 2019 (GMT +0000)
Mar Del Plata International

Tiempo Historia de SAZM - Enero, 2019

Change the Weather History Date:

Domingo, Enero 13, 2019

  Actual Average Record
Temperature  
Temperatura media 69 ° F -  
Temperatura máxima 76 ° F 79 ° F 93 ° F (2003)
Temperatura mínima 62 ° F 58 ° F 46 ° F (2005)
Cooling Degree Days 4    
Growing Degree Days 19 (Base 50)    
Moisture  
Punto de rocío 62 ° F    
Average Humidity 78    
Maximum Humidity 100    
Minimum Humidity 52    
Precipitación  
Precipitación 0.00 pul 0.12 pul - ()
Presión al nivel del mar  
Presión al nivel del mar 29.97 pul    
Viento  
Velocidad del viento 6 mph ()    
Velocidad máxima del viento 13 mph    
Max Gust Speed -    
Visibilidad 6.0 Millas    
Eventos      
Averages and records for this station are not official NWS values.
T = Trace of Precipitation, MM = Missing Value Source: Averaged Metar Reports

Daily Weather History Graph

Daily Weather History Graph

Search for Another Location

Airport or City:

Astronomía

Jan. 13, 2019 Salida Puesta
Hora real 5:42 AM -03 8:14 PM -03
Crepúsculo civil 5:12 AM -03 8:45 PM -03
Crepúsculo náutico 4:34 AM -03 9:23 PM -03
Crepúsculo astronómico 3:51 AM -03 10:05 PM -03
Luna 12:30 PM -03 (1/13) 12:05 AM -03 (1/13)
Horas de luz 15h 33m
Horas de luz
14h 32m
Creciente, 44% of the Moon is Illuminated
Ene 13
Creciente
Ene 14
Cuarto creciente
Ene 21
Luna llena
Ene 27
Cuarto menguante
Feb 4
Nueva

Hourly Weather History & Observations

Hora (-03) Temp. Punto de rocío Humedad Presión Visibilidad Wind Dir Velocidad del viento Velocidad de ráfagas Precip Eventos Condiciones
12:00 AM 67 ° F 61 ° F 75% 29.97 pul 6 mi Norte 5.8 mph - -   Despejado
12:00 AM 68.0 ° F 60.8 ° F 78% 29.95 pul - Norte 5.8 mph - N/A   Despejado
1:00 AM 66.2 ° F 59.0 ° F 78% 29.95 pul - Norte 8.1 mph - N/A   Despejado
2:00 AM 66.2 ° F 60.8 ° F 83% 29.95 pul - NNO 8.1 mph - N/A   Despejado
3:00 AM 64 ° F 61 ° F 87% 29.95 pul 6 mi NO 5.8 mph - -   Parcialmente nublado
3:00 AM 64.4 ° F 60.8 ° F 88% 29.95 pul - NNO 5.8 mph - N/A   Despejado
4:00 AM 62.6 ° F 60.8 ° F 94% 29.92 pul - NO 2.3 mph - N/A   Despejado
5:00 AM 64.4 ° F 60.8 ° F 88% 29.95 pul - Oeste 6.9 mph - N/A   Despejado
6:00 AM 64 ° F 61 ° F 88% 29.97 pul 6 mi NO 3.5 mph - -   Nublado
6:00 AM 64.4 ° F 60.8 ° F 88% 29.95 pul 6.2 mi NO 3.5 mph - N/A   Nublado
7:00 AM 66.2 ° F 60.8 ° F 83% 29.98 pul - NNO 3.5 mph - N/A   Despejado
8:00 AM 68.0 ° F 60.8 ° F 78% 29.98 pul - NNO 9.2 mph - N/A   Despejado
9:00 AM 70 ° F 62 ° F 67% 30.00 pul 6 mi Oeste 5.8 mph - -   Nublado
9:00 AM 69.8 ° F 62.6 ° F 78% 29.98 pul - ONO 8.1 mph - N/A   Despejado
10:00 AM 69.8 ° F 62.6 ° F 78% 29.98 pul 6.2 mi Oeste 4.6 mph - N/A   Parcialmente nublado
11:00 AM 75.2 ° F 59.0 ° F 57% 29.98 pul - NE 4.6 mph - N/A   Despejado
12:00 PM 76 ° F 62 ° F 52% 29.96 pul 6 mi NNE 4.6 mph - -   Nublado
12:00 PM 77.0 ° F 60.8 ° F 57% 29.95 pul - NNE 5.8 mph - N/A   Despejado
1:00 PM 75.2 ° F 59.0 ° F 57% 29.95 pul - ESE 5.8 mph - N/A   Despejado
2:00 PM 75.2 ° F 57.2 ° F 53% 29.98 pul 6.2 mi Sur 8.1 mph - N/A   Nublado
3:00 PM 73 ° F 60 ° F 56% 29.98 pul 6 mi SE 12.7 mph - -   Nublado
3:00 PM 75.2 ° F 60.8 ° F 61% 29.95 pul - SSE 9.2 mph - N/A   Despejado
4:00 PM 69.8 ° F 60.8 ° F 73% 29.98 pul - SSE 8.1 mph - N/A   Despejado
5:00 PM 69.8 ° F 62.6 ° F 78% 29.98 pul - SE 12.7 mph - N/A   Despejado
6:00 PM 70 ° F 64 ° F 74% 29.99 pul 6 mi SE 8.1 mph - -   Nublado
6:00 PM 69.8 ° F 64.4 ° F 83% 29.98 pul 6.2 mi ESE 9.2 mph - N/A   Nublado
7:00 PM 69.8 ° F 64.4 ° F 83% 29.98 pul - ESE 6.9 mph - N/A   Despejado
8:00 PM 69.8 ° F 66.2 ° F 88% 29.98 pul 5.6 mi ESE 5.8 mph - N/A   Nublado
9:00 PM 69 ° F 68 ° F 96% 30.02 pul 6 mi SSE 5.8 mph - -   Nublado
9:00 PM 69.8 ° F 68.0 ° F 94% 30.01 pul 6.2 mi SSE 5.8 mph - N/A   Nublado
10:00 PM 69.8 ° F 68.0 ° F 94% 30.01 pul 6.2 mi SE 4.6 mph - N/A   Nublado
11:00 PM 68.0 ° F 68.0 ° F 100% 30.01 pul 5.0 mi SE 4.6 mph - N/A   Nublado